Weather History for Pecs, Hungary

Change the Weather History Date:

Wednesday, December 11, 2013

  Actual Average Record
Temperature  
Mean Temperature 29 °F -  
Max Temperature 36 °F 37 °F - ()
Min Temperature 22 °F 28 °F - ()
Degree Days  
Heating Degree Days 36    
Moisture  
Dew Point 21 °F    
Average Humidity 70    
Maximum Humidity 80    
Minimum Humidity 44    
Precipitation  
Precipitation 0.00 in 0.06 in - ()
Sea Level Pressure  
Sea Level Pressure 30.67 in    
Wind  
Wind Speed 3 mph ()    
Max Wind Speed 7 mph    
Max Gust Speed -    
Visibility 15.2 miles    
Events      
T = Trace of Precipitation, MM = Missing Value Source: Averaged Metar Reports

Daily Weather History Graph

Daily Weather History Graph

Search for Another Location

Airport:

Trip Planner

Search our weather history database for the weather conditions in past years. The results will help you decide how hot, cold, wet, or windy it might be!

Date:

Astronomy

Dec. 11, 2013 Rise Set
Actual Time 7:18 AM CET 4:01 PM CET
Civil Twilight 6:44 AM CET 4:36 PM CET
Nautical Twilight 6:06 AM CET 5:14 PM CET
Astronomical Twilight 5:30 AM CET 5:50 PM CET
Moon 12:40 PM CET (12/11) 1:05 AM CET (12/11)
Length of Visible Light 9h 51m
Length of Day
8h 42m
Waxing Gibbous, 69% of the Moon is Illuminated
Dec 11
Waxing Gibbous
Dec 17
Full
Dec 25
Last Quarter
Jan 1
New
Jan 8
First Quarter

Hourly Weather History & Observations

Time (CET) Temp. Windchill Dew Point Humidity Pressure Visibility Wind Dir Wind Speed Gust Speed Precip Events Conditions
12:45 AM 24.8 °F 20.5 °F 19.4 °F 80% 30.71 in - East 3.5 mph - N/A   Clear
1:00 AM 26 °F - 20 °F 68% 30.77 in 16 mi East 2.2 mph - -   Partly Cloudy
1:45 AM 26.6 °F 22.6 °F 19.4 °F 74% 30.71 in - East 3.5 mph - N/A   Clear
2:45 AM 24.8 °F 20.5 °F 17.6 °F 74% 30.71 in - ENE 3.5 mph - N/A   Clear
3:45 AM 24.8 °F 19.1 °F 17.6 °F 74% 30.71 in - East 4.6 mph - N/A   Clear
4:45 AM 23.0 °F 17.0 °F 17.6 °F 80% 30.71 in - East 4.6 mph - N/A   Clear
5:15 AM 24.8 °F - 17.6 °F 74% 30.71 in - NE 2.3 mph - N/A   Clear
5:45 AM 24.8 °F 20.5 °F 17.6 °F 74% 30.71 in - NE 3.5 mph - N/A   Clear
6:00 AM - - - N/A% - - Variable 3.5 mph - N/A   Clear
6:15 AM 23.0 °F 17.0 °F 17.6 °F 80% 30.69 in - East 4.6 mph - N/A   Clear
6:45 AM 24.8 °F 20.5 °F 17.6 °F 74% 30.69 in - ENE 3.5 mph - N/A   Clear
7:00 AM 24 °F - 18 °F 70% 30.74 in 19 mi ENE 2.2 mph - -   Partly Cloudy
7:15 AM 24.8 °F 19.1 °F 19.4 °F 80% 30.69 in - East 4.6 mph - N/A   Clear
7:45 AM 24.8 °F - 19.4 °F 80% 30.69 in - ENE 2.3 mph - N/A   Clear
8:15 AM 24.8 °F 20.5 °F 19.4 °F 80% 30.71 in - East 3.5 mph - N/A   Clear
8:45 AM 26.6 °F 21.2 °F 21.2 °F 80% 30.71 in - East 4.6 mph - N/A   Clear
9:00 AM - - - N/A% - - Variable 3.5 mph - N/A   Clear
9:15 AM 26.6 °F 22.6 °F 21.2 °F 80% 30.71 in - East 3.5 mph - N/A   Clear
9:45 AM 28.4 °F 21.2 °F 21.2 °F 74% 30.71 in - ESE 6.9 mph - N/A   Clear
10:15 AM 30.2 °F 25.4 °F 21.2 °F 69% 30.71 in - ESE 4.6 mph - N/A   Clear
10:45 AM 32.0 °F 27.5 °F 21.2 °F 64% 30.71 in - ESE 4.6 mph - N/A   Clear
11:15 AM 33.8 °F 29.6 °F 21.2 °F 60% 30.69 in - SE 4.6 mph - N/A   Clear
11:45 AM 33.8 °F 28.6 °F 21.2 °F 60% 30.69 in - SE 5.8 mph - N/A   Clear
12:00 PM - - - N/A% - - Variable 3.5 mph - N/A   Clear
12:15 PM 33.8 °F 29.6 °F 19.4 °F 56% 30.66 in - ESE 4.6 mph - N/A   Clear
12:45 PM 35.6 °F 31.7 °F 21.2 °F 56% 30.66 in - ESE 4.6 mph - N/A   Clear
1:00 PM 35 °F - 21 °F 44% 30.69 in 19 mi ESE 4.5 mph - -   Partly Cloudy
1:15 PM 35.6 °F 30.7 °F 21.2 °F 56% 30.66 in - ESE 5.8 mph - N/A   Clear
1:45 PM 35.6 °F 32.8 °F 23.0 °F 60% 30.63 in - ESE 3.5 mph - N/A   Clear
2:15 PM 35.6 °F 31.7 °F 23.0 °F 60% 30.63 in - ESE 4.6 mph - N/A   Clear
2:45 PM 33.8 °F 29.6 °F 21.2 °F 60% 30.63 in - ESE 4.6 mph - N/A   Clear
3:00 PM - - - N/A% - 3.1 mi Variable 3.5 mph - N/A   Clear
3:15 PM 33.8 °F 29.6 °F 23.0 °F 65% 30.63 in - East 4.6 mph - N/A   Clear
3:45 PM 32.0 °F - 23.0 °F 69% 30.63 in - ESE 2.3 mph - N/A   Clear
4:15 PM 32.0 °F 27.5 °F 23.0 °F 69% 30.63 in - SE 4.6 mph - N/A   Clear
4:45 PM 32.0 °F - 23.0 °F 69% 30.63 in - Calm Calm - N/A   Clear
5:15 PM 32.0 °F 28.7 °F 23.0 °F 69% 30.63 in - East 3.5 mph - N/A   Clear
5:45 PM 30.2 °F 26.7 °F 23.0 °F 75% 30.63 in - East 3.5 mph - N/A   Clear
6:15 PM 30.2 °F 25.4 °F 23.0 °F 75% 30.63 in - East 4.6 mph - N/A   Clear
6:45 PM 28.4 °F 24.6 °F 21.2 °F 74% 30.60 in - East 3.5 mph - N/A   Clear
7:00 PM 29 °F - 22 °F 65% 30.65 in 19 mi East 4.5 mph - -   Partly Cloudy
7:15 PM 28.4 °F - 23.0 °F 80% 30.60 in - ENE 2.3 mph - N/A   Clear
7:45 PM 28.4 °F - 21.2 °F 74% 30.60 in - ENE 2.3 mph - N/A   Clear
8:15 PM 28.4 °F 23.3 °F 21.2 °F 74% 30.63 in - East 4.6 mph - N/A   Clear
8:45 PM 28.4 °F 23.3 °F 21.2 °F 74% 30.63 in - East 4.6 mph - N/A   Clear
9:45 PM 28.4 °F - 19.4 °F 69% 30.60 in - Calm Calm - N/A   Clear
10:45 PM 28.4 °F - 19.4 °F 69% 30.60 in - East 1.2 mph - N/A   Clear
11:45 PM 26.6 °F - 19.4 °F 74% 30.60 in - Calm Calm - N/A   Clear